Date,TemperatureHighF,TemperatureAvgF,TemperatureLowF,DewpointHighF,DewpointAvgF,DewpointLowF,HumidityHigh,HumidityAvg,HumidityLow,PressureMaxIn,PressureMinIn,WindSpeedMaxMPH,WindSpeedAvgMPH,GustSpeedMaxMPH,PrecipitationSumIn
2013-3-1,66.9,65.9,65.1,66.3,65.4,64.5,98,98,98,29.95,29.83,13,9,22,3.93
2013-3-3,68.7,66.9,66.0,68.1,66.0,65.2,98,97,96,30.07,30.07,9,8,17,0.00
2013-3-4,84.2,78.4,69.8,65.3,57.0,52.0,81,49,36,30.18,30.09,10,6,18,0.00
2013-3-5,83.8,78.8,68.9,65.5,57.0,50.6,82,48,34,30.18,30.09,10,6,19,0.00
2013-3-6,86.7,81.4,69.8,72.6,57.8,50.1,94,47,31,30.15,30.07,8,4,14,0.00
2013-3-7,87.1,81.2,66.0,73.2,60.3,54.0,98,52,36,30.15,30.03,8,5,14,0.00
2013-3-8,86.4,80.7,64.0,73.7,60.1,52.6,98,52,34,30.21,30.09,9,4,13,0.00
2013-3-9,83.5,71.1,68.4,71.2,66.0,51.2,95,86,35,30.18,30.09,9,1,13,0.00
2013-3-10,87.3,68.7,62.6,75.2,63.4,54.5,98,86,35,30.12,30.03,8,1,15,0.00
2013-3-11,87.3,73.0,64.4,78.7,64.2,55.8,98,79,37,30.15,30.03,7,2,14,0.00
2013-3-12,86.0,73.5,64.4,76.3,64.0,53.1,98,77,36,30.15,30.07,7,1,10,0.00
2013-3-13,90.1,80.6,63.7,74.4,61.5,53.7,98,55,30,30.01,29.86,8,4,15,0.00
2013-3-14,87.3,79.2,68.0,72.4,61.8,51.3,98,59,31,29.95,29.86,7,4,14,0.00
2013-3-15,71.8,70.5,69.6,71.2,69.9,68.9,98,98,96,30.01,29.89,6,4,13,0.17
2013-3-16,93.9,75.9,65.5,71.7,68.2,63.1,98,81,40,29.98,29.71,8,2,13,0.04
2013-3-17,75.6,70.8,66.4,70.8,64.6,42.8,98,84,34,30.12,29.68,12,4,26,0.00
2013-3-18,77.4,71.4,62.2,56.3,50.9,47.0,80,49,36,30.24,30.15,8,5,15,0.05
2013-3-19,80.1,73.3,60.1,70.6,58.1,49.3,98,61,36,30.30,30.21,8,3,14,0.00
2013-3-20,86.0,77.2,61.0,72.7,60.2,52.8,98,59,38,30.33,30.18,7,4,13,0.00
2013-3-21,90.5,79.6,63.1,67.6,55.7,49.4,98,47,26,30.18,29.98,7,4,13,0.00
2013-3-22,92.8,85.0,75.9,62.2,59.5,55.8,60,43,32,30.01,29.89,14,10,23,0.00
2013-3-23,96.4,78.1,72.9,69.6,58.3,54.1,89,51,28,30.07,29.92,12,4,16,0.00
2013-3-24,97.5,72.3,67.5,75.5,68.3,56.4,98,91,29,30.03,29.86,5,0,10,0.00
2013-3-25,87.1,79.6,64.8,75.0,65.4,56.6,98,64,47,30.12,30.01,8,4,15,0.00
2013-3-26,91.6,81.6,70.9,77.3,70.0,62.8,98,71,42,30.09,29.95,8,3,13,0.00
2013-3-27,97.0,85.3,67.6,77.5,66.7,60.2,98,57,31,30.09,29.98,8,4,12,0.00
2013-3-28,95.9,76.3,66.4,71.4,66.0,55.4,98,76,29,30.07,29.95,8,3,13,0.00